Bogota, Colombia

11:25 AM -05 on October 20, 2017 (GMT -0500)
Eldorado International

Weather History for SKBO - October, 2012

Change the Weather History Date:

Friday, October 12, 2012

  Actual Average Record
Temperature  
Mean Temperature 56 °F -  
Max Temperature 66 °F 64 °F 82 °F (2000)
Min Temperature 46 °F 46 °F 40 °F (2017)
Degree Days  
Heating Degree Days 9    
Growing Degree Days 6 (Base 50)    
Moisture  
Dew Point 51 °F    
Average Humidity 82    
Maximum Humidity 100    
Minimum Humidity 53    
Precipitation  
Precipitation 0.00 in 0.14 in - ()
Sea Level Pressure  
Sea Level Pressure 30.29 in    
Wind  
Wind Speed 4 mph ()    
Max Wind Speed 20 mph    
Max Gust Speed -    
Visibility 5.1 miles    
Events Fog , Rain , Thunderstorm    
Averages and records for this station are not official NWS values.
T = Trace of Precipitation, MM = Missing Value Source: Averaged Metar Reports

Daily Weather History Graph

Daily Weather History Graph

Search for Another Location

Airport or City:

Trip Planner

Search our weather history database for the weather conditions in past years. The results will help you decide how hot, cold, wet, or windy it might be!

Date:

Astronomy

Oct. 12, 2012 Rise Set
Actual Time 5:42 AM -05 5:43 PM -05
Civil Twilight 5:21 AM -05 6:04 PM -05
Nautical Twilight 4:56 AM -05 6:28 PM -05
Astronomical Twilight 4:32 AM -05 6:53 PM -05
Moon 2:58 AM -05 (10/12) 3:23 PM -05 (10/12)
Length of Visible Light 12h 43m
Length of Day
12h 01m
Waning Crescent, 10% of the Moon is Illuminated
Oct 12
Waning Crescent
Oct 15
New
Oct 21
First Quarter
Oct 29
Full
Nov 6
Last Quarter

Hourly Weather History & Observations

Time (-05) Temp. Dew Point Humidity Pressure Visibility Wind Dir Wind Speed Gust Speed Precip Events Conditions
12:00 AM 51.8 °F 48.2 °F 88% 30.33 in 6.2 mi Variable 2.3 mph - N/A   Scattered Clouds
1:00 AM 51 °F 49 °F 92%  in 7 mi West 2.2 mph - -   Haze
1:00 AM 51.8 °F 50.0 °F 94% 30.30 in 6.2 mi Variable 2.3 mph - N/A   Scattered Clouds
2:00 AM 48.2 °F 48.2 °F 100% 30.28 in 6.2 mi Variable 2.3 mph - N/A Fog Shallow Fog
3:00 AM 48.2 °F 48.2 °F 100% 30.26 in 6.2 mi Variable 2.3 mph - N/A Fog Patches of Fog
4:00 AM 47 °F 46 °F 97%  in 2 mi North 2.2 mph - - Fog Light Fog
4:00 AM 46.4 °F 46.4 °F 100% 30.26 in 6.2 mi Variable 2.3 mph - N/A Fog Patches of Fog
5:00 AM 48.2 °F 48.2 °F 100% 30.28 in 6.2 mi NW 3.5 mph - N/A Fog Patches of Fog
5:30 AM 48.2 °F 48.2 °F 100% 30.29 in 6.2 mi Variable 2.3 mph - N/A Fog Patches of Fog
6:00 AM 50.0 °F 48.2 °F 94% 30.30 in 6.2 mi Variable 2.3 mph - N/A Fog Mostly Cloudy
7:00 AM 53 °F 51 °F 92%  in 3 mi NNE 4.5 mph - -   Mist
7:00 AM 53.6 °F 51.8 °F 94% 30.32 in 3.1 mi NNE 4.6 mph - N/A   Mostly Cloudy
8:00 AM 57.2 °F 51.8 °F 82% 30.34 in 3.1 mi ENE 3.5 mph - N/A   Haze
9:00 AM 59.0 °F 50.0 °F 72% 30.35 in 5.0 mi Variable 2.3 mph - N/A   Mostly Cloudy
10:00 AM 64 °F 51 °F 53%  in 6 mi ENE 2.2 mph - -   Haze
10:00 AM 64.4 °F 51.8 °F 64% 30.34 in 6.2 mi Variable 2.3 mph - N/A   Scattered Clouds
11:00 AM 64.4 °F 50.0 °F 59% 30.31 in 6.2 mi Variable 2.3 mph - N/A   Scattered Clouds
12:00 PM 66.2 °F 50.0 °F 56% 30.27 in 6.2 mi Variable 2.3 mph - N/A   Mostly Cloudy
1:00 PM 65 °F 53 °F 56%  in 7 mi WNW 20.1 mph - -   Haze
1:00 PM 64.4 °F 53.6 °F 68% 30.24 in 6.2 mi WNW 19.6 mph - N/A   Scattered Clouds
2:00 PM 60.8 °F 50.0 °F 68% 30.22 in 6.2 mi West 17.3 mph - N/A   Drizzle
2:20 PM 60.8 °F 51.8 °F 72% 30.22 in 6.2 mi WSW 8.1 mph - N/A Rain , Thunderstorm Light Thunderstorms and Rain
3:00 PM 62.6 °F 53.6 °F 72% 30.22 in 6.2 mi South 11.5 mph - N/A Thunderstorm Thunderstorm
4:00 PM 63 °F 51 °F 55%  in 6 mi SSE 6.7 mph - - Thunderstorm Light Thunderstorm
4:00 PM 62.6 °F 50.0 °F 63% 30.22 in 6.2 mi SSE 6.9 mph - N/A   Mostly Cloudy
4:30 PM 62.6 °F 51.8 °F 68% 30.22 in 6.2 mi SSW 11.5 mph - N/A   Mostly Cloudy
4:36 PM 60.8 °F 51.8 °F 72% 30.23 in 6.2 mi SSW 5.8 mph - N/A Rain , Thunderstorm Light Thunderstorms and Rain
5:00 PM 59.0 °F 51.8 °F 77% 30.23 in 6.2 mi ENE 4.6 mph - N/A Rain , Thunderstorm Light Thunderstorms and Rain
6:00 PM 55.4 °F 53.6 °F 94% 30.27 in 1.2 mi NW 8.1 mph - N/A Rain , Thunderstorm Heavy Thunderstorms and Rain
7:00 PM 54 °F 51 °F 85%  in 9 mi NE 4.5 mph - -   Haze
7:00 PM 53.6 °F 51.8 °F 94% 30.31 in 1.2 mi NE 5.8 mph - N/A Rain , Thunderstorm Heavy Thunderstorms and Rain
7:30 PM 51.8 °F 50.0 °F 94% 30.37 in 1.2 mi NE 4.6 mph - N/A Rain , Thunderstorm Heavy Thunderstorms and Rain
8:00 PM 51.8 °F 50.0 °F 94% 30.36 in 1.2 mi NNE 4.6 mph - N/A Rain , Thunderstorm Heavy Thunderstorms and Rain
8:30 PM 53.6 °F 51.8 °F 94% 30.36 in 2.5 mi NE 4.6 mph - N/A Rain Light Rain
9:00 PM 53.6 °F 51.8 °F 94% 30.37 in 3.1 mi NE 3.5 mph - N/A Rain Light Rain
10:00 PM 54 °F 53 °F 93%  in 4 mi ENE 4.5 mph - - Rain Light Drizzle
10:00 PM 53.6 °F 51.8 °F 94% 30.38 in 4.3 mi ENE 4.6 mph - N/A   Drizzle
11:00 PM 53.6 °F 50.0 °F 88% 30.38 in 6.2 mi East 3.5 mph - N/A   Drizzle